STARLINK-5300 (55676 NORAD) Tracking and Keplerian Element Data

This shows tracking and keplerian element data for the satellite.

Feedback or suggestion? Click here.




ElementValue
Catalog55676
NameSTARLINK-5300
Epoch Orbit130
Epoch Day62.91667824
Epoch Year2023
RAAN110.1787
Inclination69.9999
Eccentricity0.0003514
Argument of Perigee271.0882
Mean Anonmoly342.3494
Mean Motion15.75335708
Decay Rate-0.00973093
L11 55676U 23021BA 23062.91667824 -.00973093 00000+0 -72034-2 0 9993
L22 55676 69.9999 110.1787 0003514 271.0882 342.3494 15.75335708 1305



Live tracking and technical data element details for STARLINK-5300 (NORAD 55676). STARLINK-5300 can be tracked NOW for your location showing map with azimuth and elevation plus other details from your city location.







IsCatalogInMostPopularTable: catalog: 55676, numindb: 1
Update: records affected: 1



GetName: 55676 STARLINK-5300

Hit Count: updated at: Wed, 22 Mar 2023 16:11:20 GMT